Tracking 18951 objects as of 21-Jan-2018
HD Live streaming from Space Station
objects crossing your sky now

FENGYUN 1C DEB

Track FENGYUN 1C DEB now!
10-day predictions


NORAD ID: 31832
Int'l Code: 1999-025CHW
Perigee: 818.0 km
Apogee: 1,046.8 km
Inclination: 97.8 °
Period: 103.5 minutes
Semi major axis: 7303 km
RCS: 0.0021 m2 (small)
Launch date: May 10, 1999
Source: People's Republic of China (PRC)
Launch site: Taiyaun Space Center, China (TSC)

Note: This is SATELLITE DEBRIS
aabbcc
Your satellite tracking list
Your tracking list is empty




NASA's NSSDC Master Catalog

Two Line Element Set (TLE):
1 31832U 99025CHW 18017.07296732 +.00000423 +00000-0 +32887-3 0  9995
2 31832 097.8207 111.4116 0156668 140.9107 220.3500 13.90965248538602
Source of the keplerian elements: AFSPC